Regional Weather Roundup
Issued by NWS

Home | Current Version | Previous Version | Graphics & Text | Print | Product List | Glossary On
Versions: 1 2 3 4 5 6 7 8 9 10 11 12 13 14 15 16 17 18 19 20 21 22 23 24 25 26 27 28 29 30 31 32 33 34 35 36 37 38 39 40 41 42 43 44 45 46 47 48 49 50
000
ASUS43 KDMX 250007
RWRIA

WEATHER ROUNDUP FOR IOWA
NATIONAL WEATHER SERVICE DES MOINES IA
700 PM CDT FRI APR 24 2015

NOTE: "FAIR" INDICATES FEW OR NO CLOUDS BELOW 12,000 FEET WITH NO
SIGNIFICANT WEATHER AND/OR OBSTRUCTIONS TO VISIBILITY.

* - THESE STATIONS ARE NOT NWS STATIONS...THUS NOT UNDER NWS
QUALITY CONTROL.  THEY ALSO DO NOT REPORT WEATHER SUCH
AS PRECIPITATION OR FOG.

IAZ001>003-012>014-020>022-031>034-043>046-250100-
   NORTHWEST IOWA

CITY           SKY/WX    TMP DP  RH WIND       PRES   REMARKS
CARROLL *      CLOUDY    57  52  82 E23       29.64R
CHEROKEE *     SUNNY     61  49  65 SE15G26   29.59F
DENISON *      CLOUDY    63  54  72 S16       29.59S
LE MARS *      SUNNY     72  52  49 SE16      29.54F
ORANGE CITY *  SUNNY     63  52  67 SE16G23   29.56S
SHELDON *      SUNNY     59  52  77 E18G31    29.57S
SIOUX CITY     MOSUNNY   72  52  49 S16       29.54F
6HR MIN TEMP:  70; 6HR MAX TEMP:  76;

SPENCER        MOSUNNY   54  47  77 SE21G29   29.63F
6HR MIN TEMP:  48; 6HR MAX TEMP:  60; 6HR PCP:  0.01;

STORM LAKE *   SUNNY     57  50  77 SE22G29   29.63R
$$

IAZ055>058-069>071-079>083-090>094-250100-
   SOUTHWEST IOWA

CITY           SKY/WX    TMP DP  RH WIND       PRES   REMARKS
ATLANTIC *     CLOUDY    59  52  77 S12G20    29.63F
AUDUBON *      MOSUNNY   61  52  72 S15       29.64S
CLARINDA *     CLOUDY    59  54  82 SE7       29.65S
COUNCIL BLFS * CLOUDY    59  54  82 SE17      29.60F
CRESTON *      CLOUDY    55  54  94 SE9       29.66F
HARLAN  *      CLOUDY    61  57  88 SE14G20   29.65S
LAMONI         CLOUDY    57  54  89 S7        29.67S
6HR MIN TEMP:  57; 6HR MAX TEMP:  63;

RED OAK *      CLOUDY    59  54  82 S9G16     29.63F
SHENANDOAH *   CLOUDY    59  54  82 SE12      29.63F
$$

IAZ047>049-059>061-072>074-084-250100-
   CENTRAL IOWA

CITY           SKY/WX    TMP DP  RH WIND       PRES   REMARKS
AMES           CLOUDY    50  45  83 E15       29.70F
6HR MIN TEMP:  50; 6HR MAX TEMP:  56;

ANKENY *       CLOUDY    52  48  87 E9        29.70R
CHARITON *     CLOUDY    55  55 100 S10G17    29.69S FOG
DES MOINES     CLOUDY    54  47  77 E9        29.69S
6HR MIN TEMP:  53; 6HR MAX TEMP:  57; 6HR PCP:  0.02;

GRINNELL*      CLOUDY    46  43  87 E16       29.72F
KNOXVILLE *    CLOUDY    54  50  87 E7        29.69S
MARSHALLTOWN   CLOUDY    46  43  89 E18       29.72F
6HR MIN TEMP:  46; 6HR MAX TEMP:  53; 6HR PCP: TRACE;

PELLA *        LGT RAIN  50  50 100 E10G16    29.71F
PERRY *        CLOUDY    55  48  80 E16G23    29.67S
$$

IAZ004>006-015-016-023>025-035-036-250100-
   NORTH CENTRAL IOWA

CITY           SKY/WX    TMP DP  RH WIND       PRES   REMARKS
ALGONA *       CLOUDY    48  46  93 SE14G25   29.70S
CLARION *      CLOUDY    46  46 100 SE21G29   29.70S
ESTHERVILLE    CLOUDY    49  45  86 SE18      29.67F
6HR MIN TEMP:  45; 6HR MAX TEMP:  51; 6HR PCP:  0.01;

FORT DODGE *   CLOUDY    50  45  81 SE22      29.68F
MASON CITY     CLOUDY    47  43  86 SE20      29.75R
6HR MIN TEMP:  42; 6HR MAX TEMP:  47; 6HR PCP:  0.34;

FOREST CITY *  CLOUDY    45  43  93 E16       29.74S
IOWA FALLS *   CLOUDY    46  43  87 E21       29.73F
$$

IAZ007>011-017>019-026>030-037>042-050>054-066-250100-
   NORTHEAST IOWA

CITY           SKY/WX    TMP DP  RH WIND       PRES   REMARKS
CEDAR RAPIDS   CLOUDY    46  50 100 E17       29.76F
6HR MIN TEMP:  44; 6HR MAX TEMP:  54; 6HR PCP:  0.78;

CHARLES CITY * CLOUDY    45  43  93 SE20      29.77S
CLINTON *      CLOUDY    46  39  76 NE21G33   29.87R
DECORAH *      CLOUDY    43  41  93 SE13G20   29.80S
DUBUQUE        CLOUDY    43  42  97 E13       29.85F
6HR MIN TEMP:  43; 6HR MAX TEMP:  48; 6HR PCP:  0.26;

MONTICELLO *   CLOUDY    45  45 100 E16       29.81F
OELWEIN *      CLOUDY    45  41  87 SE22G29   29.78F
WATERLOO       PTSUNNY   46  41  82 SE22G29   29.75F
6HR MIN TEMP:  42; 6HR MAX TEMP:  46; 6HR PCP:  0.25;

$$

IAZ064-065-067-068-078-250100-
   EAST CENTRAL IOWA

CITY           SKY/WX    TMP DP  RH WIND       PRES   REMARKS
DAVENPORT      LGT RAIN  46  42  86 NE18      29.84R
6HR MIN TEMP:  47; 6HR MAX TEMP:  61; 6HR PCP:  0.18;

IOWA CITY      CLOUDY    48  43  82 E12       29.78F
6HR MIN TEMP:  47; 6HR MAX TEMP:  58; 6HR PCP:  0.52;

MT. PLEASANT * CLOUDY    60  39  46 SE7       29.73F
MUSCATINE *    CLOUDY    52  45  76 E13       29.77F
QUAD CITIES    LGT RAIN  50  43  77 NE7       29.83R
6HR MIN TEMP:  50; 6HR MAX TEMP:  64; 6HR PCP:  0.18;

$$

IAZ062-063-075>077-085>089-095>099-250100-
   SOUTHEAST IOWA

CITY           SKY/WX    TMP DP  RH WIND       PRES   REMARKS
BURLINGTON     CLOUDY    62  37  39 SE12      29.73F
6HR MIN TEMP:  62; 6HR MAX TEMP:  65;

FAIRFIELD *    CLOUDY    55  48  76 NE8       29.73R
FORT MADISON * CLOUDY    63  39  42 SE12G18   29.73F
KEOKUK *       CLOUDY    64  41  42 SE9G16    29.71F
OSKALOOSA *    CLOUDY    50  47  88 E14       29.72S
CENTERVILLE *  CLOUDY    57  55  94 SE5       29.71F
OTTUMWA        RAIN      52  50  93 E13       29.71F
6HR MIN TEMP:  52; 6HR MAX TEMP:  65; 6HR PCP:  0.07;

WASHINGTON *   CLOUDY    52  52 100 E13       29.74F
$$

ABBREVIATIONS USED IN REMARKS
   TC - TEMPERATURES IN CELSIUS
  WCI - WIND CHILL INDEX
   HX - HEAT INDEX
  VSB - VISIBILITY
$$




USA.gov is the U.S. government's official web portal to all federal, state and local government web resources and services.